Погода в Наканно

Россия / Иркутская область     62°54′05″N   108°26′47″E
темп.,
°C
ветер,
м/с
пор.,
м/с
влажн.,
%
обл.,
%
осадки,
мм/ч
давл.,
гПа
погр.,
м
13 июня, вс
вс1323:00+11юз41160100 0.0 1007715
02:00+10юз5126497 0.0 1006726
05:00+9ююз31073100 0.2 1006670
08:00+11ююз385898 0.2 1005609
11:00+14юз4948100 0.1 10031729
14:00+14з61258100 0.1 10031694
17:00+10зюз41184100 0.6 1004877
20:00+9юз2693100 1.3 1004344
14 июня, пн
пн1423:00+9з2494100 0.1 1005259
02:00+7сз2594100 0.1 1005323
05:00+6ссз3691100 0.0 1006463
08:00+6ссз3588100 0.0 1008544
11:00+7ссз4585100 0.1 1008711
14:00+7ссз4687100 0.2 1009701
17:00+6ссз4787100 0.0 1010650
20:00+7с3886100 0.1 1010593
15 июня, вт
вт1523:00+6ссз278788 0.0 1010382
02:00+7ссв4987100 0.0 1010509
05:00+7ссв3892100 0.2 1010454
08:00+7ссв3890100 0.4 1012456
11:00+8ссв3783100 0.1 1013400
14:00+12ссв355934 0.1 1012706
17:00+16ссв344568 0.0 10111506
20:00+15ссв135516 0.0 1012133
16 июня, ср
ср1623:00+9с116745 0.0 101310
02:00+9ссз115997 0.0 101310
05:00+11ссз115884 0.0 101319
08:00+15с124493 0.0 1013415
11:00+17с113756 0.0 10131113
14:00+20зсз123245 0.0 10122398
17:00+20юз113267 0.0 10112353
20:00+18юз1148100 0.0 101220
17 июня, чт
чт1723:00+14зсз115177 0.0 101210
02:00+13зюз115396 0.0 101310
05:00+13з006321 0.0 101410
08:00+16з115591 0.0 1014135
11:00+22зюз123547 0.0 10132210
14:00+20ю1140100 0.0 10121723
17:00+22юз11356 0.0 10121663
20:00+20юв114812 0.0 101216